sat.trackr.live / text

‹ back to catalog

STARLINK-30495

NORAD 57968 · 2023-151E

PAYLOAD ACTIVE UNKNOWN

§ Identity

Operator
Country
US
Launch date
2023-09-30
Launch site
AFETR
Launch vehicle
Mass (kg)
RCS (m²)

Purposes: comms

External: N2YO · Heavens-Above · Gunter

§ Orbital elements

Epoch: 2026-05-25T01:03:35.117280Z

Period
94.27 min
Inclination
43.0015°
Eccentricity
0.0000924
Mean motion
15.27578048 rev/d
Perigee alt
482.4 km
Apogee alt
483.7 km
Semi-major
6,861.2 km
B*
-7.6985e-7
RAAN
264.8129°
Arg perigee
288.1471°
Mean anomaly
71.9279°
Rev number
14,744

§ Raw data

STARLINK-304951 57968U 23151E   26145.04415645 -.00000283  00000+0 -76985-6 0  99992 57968  43.0015 264.8129 0000924 288.1471  71.9279 15.27578048147440

JSON: /api/v1/satellites/57968 · /tle

For live sub-satellite position, see the globe view (requires WebGL).

§ Visibility from observer

Set your observer location to see the next 7 days of passes ≥ 10°. The values pass through the URL so the page stays shareable.

No JS? Fill the form by hand. The geolocation button needs JavaScript.